Preview of NWS' New Version of Forecast
This preview is not operational and should not be used for support decisions.

Regional Weather Roundup (RWR)

Issued by National Weather Service (NWS)

                            
000
ASUS43 KDMX 182101
RWRIA 

WEATHER ROUNDUP FOR IOWA
NATIONAL WEATHER SERVICE DES MOINES IA
400 PM CDT THU APR 18 2019

NOTE: "FAIR" INDICATES FEW OR NO CLOUDS BELOW 12,000 FEET WITH NO
SIGNIFICANT WEATHER AND/OR OBSTRUCTIONS TO VISIBILITY.

* - THESE STATIONS ARE NOT NWS STATIONS...THUS NOT UNDER NWS
QUALITY CONTROL.  THEY ALSO DO NOT REPORT WEATHER SUCH 
AS PRECIPITATION OR FOG.  

IAZ001>003-012>014-020>022-031>034-043>046-182200-
   NORTHWEST IOWA
  
CITY           SKY/WX    TMP DP  RH WIND       PRES   REMARKS
CARROLL *      CLOUDY    54  43  66 N17       29.87R                  
CHEROKEE *     CLOUDY    49  41  73 N15       29.91S                  
DENISON *      PTSUNNY   54  41  62 N17G24    29.89F                  
LE MARS *      CLOUDY    50  43  76 N15G22    29.93S                  
SHELDON *      CLOUDY    48  46  93 N18       29.91F                  
SIOUX CITY     CLOUDY    52  46  80 N17       29.92S                  
SPENCER        CLOUDY    52  40  63 N17       29.90F                  
STORM LAKE *     N/A     50  41  71 N20       29.86F                  
$$
 
IAZ055>058-069>071-079>083-090>094-182200-
   SOUTHWEST IOWA
  
CITY           SKY/WX    TMP DP  RH WIND       PRES   REMARKS
ATLANTIC *     CLOUDY    54  41  62 N18G24    29.86S                  
AUDUBON *      CLOUDY    52  41  66 CALM      29.88R                  
CLARINDA *     PTSUNNY   61  37  41 N18G25    29.86F                  
COUNCIL BLFS * FAIR      59  37  44 N20       29.85F                  
CRESTON *      CLOUDY    54  39  58 NW15G24   29.84S                  
HARLAN  *      PTSUNNY   55  43  62 N18G29    29.86F                  
LAMONI         CLOUDY    55  38  52 N21G31    29.81F                  
RED OAK *      PTSUNNY   59  39  47 N18G26    29.86F                  
SHENANDOAH *   PTSUNNY   59  39  47 N18       29.84F                  
$$
 
IAZ047>049-059>061-072>074-084-182200-
   CENTRAL IOWA
  
CITY           SKY/WX    TMP DP  RH WIND       PRES   REMARKS
AMES           CLOUDY    53  39  59 N22G29    29.84S                  
ANKENY *       CLOUDY    55  37  50 N18G32    29.84S                  
BOONE *        CLOUDY    52  39  62 N17G25    29.84S                  
CHARITON *     CLOUDY    55  39  54 N21       29.80F                  
DES MOINES     CLOUDY    55  37  50 NW15G25   29.83S                  
GRINNELL*      PTSUNNY   55  39  53 N18G29    29.81F                  
KNOXVILLE *    CLOUDY    54  37  54 N17G26    29.80F                  
MARSHALLTOWN   PTSUNNY   54  38  54 N20G31    29.82S                  
NEWTON *       CLOUDY    55  39  54 NW22G29   29.81S                  
PELLA *        FAIR      56  37  49 NW17G24   29.81F                  
PERRY *        CLOUDY    53  40  62 N15       29.86S                  
$$
 
IAZ004>006-015-016-023>025-035-036-182200-
   NORTH CENTRAL IOWA
  
CITY           SKY/WX    TMP DP  RH WIND       PRES   REMARKS
ALGONA *       PTSUNNY   48  41  76 N14G22    29.87F                  
CLARION *      CLOUDY    50  39  66 N15G22    29.86S                  
ESTHERVILLE    CLOUDY    48  39  71 N16       29.89F                  
FORT DODGE *   CLOUDY    49  39  68 N8        29.88S                  
MASON CITY     PTSUNNY   51  37  58 N20G28    29.85F                  
FOREST CITY *  CLOUDY    50  37  62 N18G24    29.86F                  
IOWA FALLS *   CLOUDY    52  38  59 N21G32    29.85S                  
$$

IAZ007>011-017>019-026>030-037>042-050>054-066-182200-
   NORTHEAST IOWA
  
CITY           SKY/WX    TMP DP  RH WIND       PRES   REMARKS
CEDAR RAPIDS   CLOUDY    50  37  61 N20       29.78R                  
CHARLES CITY * CLOUDY    50  39  66 N21G26    29.83S                  
CLINTON *      CLOUDY    47  38  71 N16       29.77R                  
DECORAH *        N/A     48  36  61 N22G31    29.78S                  
DUBUQUE        CLOUDY    47  35  63 N14G26    29.75F                  
MONTICELLO *   CLOUDY    50  36  57 N20G29    29.77R                  
OELWEIN *      CLOUDY    50  39  66 N16G28    29.80S                  
WATERLOO       CLOUDY    52  37  56 N21G29    29.81R                  
$$
 
IAZ064-065-067-068-078-182200-
   EAST CENTRAL IOWA
  
CITY           SKY/WX    TMP DP  RH WIND       PRES   REMARKS
DAVENPORT      CLOUDY    48  38  68 N21       29.78R                  
IOWA CITY      CLOUDY    53  37  54 NW20G28   29.79S                  
MT. PLEASANT * CLOUDY    55  41  58 NW20G31   29.77F                  
MUSCATINE *    CLOUDY    54  37  54 N18G26    29.77S                  
QUAD CITIES    CLOUDY    51  38  60 NW14G20   29.75R                  
$$
 
IAZ062-063-075>077-085>089-095>099-182200-
   SOUTHEAST IOWA
  
CITY           SKY/WX    TMP DP  RH WIND       PRES   REMARKS
BURLINGTON     CLOUDY    53  38  56 N20G32    29.75S                  
FAIRFIELD *    PTSUNNY   55  37  50 NW25      29.76F                  
FORT MADISON * CLOUDY    54  41  62 N20G29    29.76F                  
KEOKUK *       CLOUDY    54  41  62 N14G28    29.75F                  
OSKALOOSA *    PTSUNNY   56  35  45 NW23G32   29.79F                  
CENTERVILLE *  FAIR      55  39  54 NW18G28   29.80F                  
OTTUMWA        PTSUNNY   58  38  47 NW26G39   29.78F                  
WASHINGTON *   CLOUDY    54  39  58 NW20G30   29.79S                  
$$

ABBREVIATIONS USED IN REMARKS
   TC - TEMPERATURES IN CELSIUS
  WCI - WIND CHILL INDEX
   HX - HEAT INDEX
  VSB - VISIBILITY  
$$